Weather History for Lexington, NE

Change the Weather History Date:

Sunday, November 6, 2011

  Actual Average Record
Temperature  
Mean Temperature 40 °F -  
Max Temperature 53 °F 50 °F 78 °F (2010)
Min Temperature 28 °F 27 °F 17 °F (2007)
Degree Days  
Heating Degree Days 24    
Moisture  
Dew Point 27 °F    
Average Humidity 58    
Maximum Humidity 87    
Minimum Humidity 28    
Precipitation  
Precipitation 0.00 in - - ()
Sea Level Pressure  
Sea Level Pressure 29.83 in    
Wind  
Wind Speed 15 mph (West)    
Max Wind Speed 37 mph    
Max Gust Speed 44 mph    
Visibility 10 miles    
Events      
Averages and records for this station are not official NWS values.
T = Trace of Precipitation, MM = Missing Value Source: NWS Daily Summary

Daily Weather History Graph

Daily Weather History Graph

Search for Another Location

Airport:

Trip Planner

Search our weather history database for the weather conditions in past years. The results will help you decide how hot, cold, wet, or windy it might be!

Date:

Astronomy

Nov. 06, 2011 Rise Set
Actual Time 7:15 AM CST 5:29 PM CST
Civil Twilight 6:46 AM CST 5:58 PM CST
Nautical Twilight 6:13 AM CST 6:31 PM CST
Astronomical Twilight 5:41 AM CST 7:03 PM CST
Moon 3:15 PM CST (11/6) 3:21 AM CST (11/6)
Length of Visible Light 11h 12m
Length of Day
10h 14m
Waxing Gibbous, 86% of the Moon is Illuminated
Nov 6
Waxing Gibbous
Nov 10
Full
Nov 18
Last Quarter
Nov 25
New
Dec 2
First Quarter

Hourly Weather History & Observations

Time (CST) Temp. Windchill Dew Point Humidity Pressure Visibility Wind Dir Wind Speed Gust Speed Precip Events Conditions
12:15 AM 51.8 °F - 30.2 °F 44% 29.37 in 10.0 mi SSW 15.0 mph - N/A   Clear
12:35 AM 53.6 °F - 30.2 °F 41% 29.38 in 10.0 mi SSW 16.1 mph 21.9 mph N/A   Mostly Cloudy
12:55 AM 53.6 °F - 32.0 °F 44% 29.40 in 10.0 mi SW 18.4 mph 28.8 mph N/A   Overcast
1:15 AM 50.0 °F - 35.6 °F 58% 29.45 in 10.0 mi WNW 33.4 mph 42.6 mph N/A   Scattered Clouds
1:35 AM 46.4 °F 36.3 °F 37.4 °F 71% 29.47 in 10.0 mi WNW 36.8 mph 43.7 mph N/A   Clear
1:55 AM 42.8 °F 31.9 °F 35.6 °F 76% 29.50 in 10.0 mi WNW 32.2 mph 40.3 mph N/A   Clear
1:15 AM 42.8 °F 33.5 °F 35.6 °F 76% 29.52 in 10.0 mi WNW 23.0 mph 38.0 mph N/A   Clear
1:35 AM 42.8 °F 33.1 °F 35.6 °F 76% 29.53 in 10.0 mi WNW 25.3 mph 29.9 mph N/A   Clear
1:55 AM 42.8 °F 32.3 °F 35.6 °F 76% 29.57 in 10.0 mi WNW 29.9 mph 35.7 mph N/A   Clear
2:15 AM 41.0 °F 30.7 °F 33.8 °F 76% 29.59 in 10.0 mi WNW 25.3 mph 34.5 mph N/A   Clear
2:35 AM 41.0 °F 30.9 °F 32.0 °F 70% 29.61 in 10.0 mi WNW 24.2 mph 31.1 mph N/A   Clear
2:55 AM 39.2 °F 28.7 °F 32.0 °F 75% 29.62 in 10.0 mi NW 23.0 mph 28.8 mph N/A   Clear
3:15 AM 37.4 °F 27.8 °F 32.0 °F 81% 29.64 in 10.0 mi WNW 17.3 mph - N/A   Clear
3:35 AM 37.4 °F 27.8 °F 32.0 °F 81% 29.66 in 10.0 mi WNW 17.3 mph - N/A   Clear
3:55 AM 37.4 °F 27.8 °F 32.0 °F 81% 29.68 in 10.0 mi NW 17.3 mph 24.2 mph N/A   Clear
4:15 AM 37.4 °F 27.5 °F 32.0 °F 81% 29.69 in 10.0 mi NW 18.4 mph 21.9 mph N/A   Clear
4:35 AM 37.4 °F 28.9 °F 30.2 °F 75% 29.70 in 10.0 mi NW 13.8 mph - N/A   Clear
4:55 AM 35.6 °F 25.5 °F 30.2 °F 81% 29.71 in 10.0 mi NW 17.3 mph 25.3 mph N/A   Clear
5:15 AM 35.6 °F 25.2 °F 30.2 °F 81% 29.72 in 10.0 mi NW 18.4 mph 24.2 mph N/A   Clear
5:35 AM 35.6 °F 26.6 °F 30.2 °F 81% 29.73 in 10.0 mi WNW 13.8 mph 20.7 mph N/A   Clear
6:15 AM 33.8 °F 25.8 °F 28.4 °F 81% 29.77 in 10.0 mi WNW 10.4 mph - N/A   Clear
6:35 AM 33.8 °F 25.8 °F 30.2 °F 87% 29.78 in 10.0 mi West 10.4 mph - N/A   Clear
6:55 AM 33.8 °F 25.3 °F 30.2 °F 87% 29.79 in 10.0 mi WNW 11.5 mph - N/A   Clear
7:15 AM 33.8 °F 25.8 °F 30.2 °F 87% 29.79 in 10.0 mi WNW 10.4 mph - N/A   Clear
7:35 AM 33.8 °F 27.7 °F 30.2 °F 87% 29.80 in 10.0 mi West 6.9 mph - N/A   Clear
7:55 AM 35.6 °F 29.2 °F 30.2 °F 81% 29.83 in 10.0 mi WNW 8.1 mph - N/A   Clear
8:15 AM 37.4 °F 30.3 °F 30.2 °F 75% 29.84 in 10.0 mi WNW 10.4 mph - N/A   Clear
8:55 AM 41.0 °F 33.5 °F 30.2 °F 65% 29.86 in 10.0 mi WNW 13.8 mph 18.4 mph N/A   Clear
9:15 AM 42.8 °F 35.1 °F 30.2 °F 61% 29.87 in 10.0 mi WNW 16.1 mph 21.9 mph N/A   Clear
9:35 AM 44.6 °F 38.4 °F 30.2 °F 57% 29.88 in 10.0 mi NW 12.7 mph - N/A   Clear
9:55 AM 44.6 °F 39.2 °F 30.2 °F 57% 29.91 in 10.0 mi NW 10.4 mph - N/A   Clear
10:15 AM 44.6 °F 39.2 °F 30.2 °F 57% 29.92 in 10.0 mi West 10.4 mph - N/A   Clear
10:35 AM 46.4 °F 41.5 °F 30.2 °F 53% 29.93 in 10.0 mi NW 10.4 mph - N/A   Clear
10:55 AM 46.4 °F 41.9 °F 30.2 °F 53% 29.93 in 10.0 mi West 9.2 mph - N/A   Clear
11:15 AM 46.4 °F 44.3 °F 28.4 °F 50% 29.94 in 10.0 mi West 4.6 mph - N/A   Clear
11:35 AM 48.2 °F - 30.2 °F 50% 29.93 in 10.0 mi WNW 10.4 mph - N/A   Clear
11:55 AM 50.0 °F - 30.2 °F 47% 29.92 in 10.0 mi WNW 12.7 mph - N/A   Clear
12:15 PM 50.0 °F - 28.4 °F 43% 29.92 in 10.0 mi West 9.2 mph - N/A   Clear
12:35 PM 51.8 °F - 26.6 °F 38% 29.92 in 10.0 mi WNW 9.2 mph - N/A   Clear
12:55 PM 51.8 °F - 26.6 °F 38% 29.92 in 10.0 mi WNW 9.2 mph - N/A   Clear
1:15 PM 51.8 °F - 21.2 °F 30% 29.92 in 10.0 mi WNW 10.4 mph - N/A   Clear
1:35 PM 51.8 °F - 21.2 °F 30% 29.92 in 10.0 mi NW 17.3 mph 23.0 mph N/A   Clear
1:55 PM 51.8 °F - 21.2 °F 30% 29.92 in 10.0 mi WNW 9.2 mph 21.9 mph N/A   Clear
2:15 PM 53.6 °F - 21.2 °F 28% 29.92 in 10.0 mi WNW 15.0 mph 19.6 mph N/A   Clear
2:55 PM 53.6 °F - 21.2 °F 28% 29.92 in 10.0 mi WNW 13.8 mph - N/A   Clear
3:15 PM 53.6 °F - 21.2 °F 28% 29.92 in 10.0 mi WNW 8.1 mph 17.3 mph N/A   Clear
3:35 PM 53.6 °F - 21.2 °F 28% 29.92 in 10.0 mi West 9.2 mph - N/A   Clear
3:55 PM 51.8 °F - 19.4 °F 28% 29.93 in 10.0 mi WNW 4.6 mph - N/A   Clear
4:15 PM 51.8 °F - 21.2 °F 30% 29.94 in 10.0 mi West 4.6 mph - N/A   Clear
4:35 PM 51.8 °F - 21.2 °F 30% 29.94 in 10.0 mi West 4.6 mph - N/A   Clear
4:55 PM 51.8 °F - 19.4 °F 28% 29.95 in 10.0 mi West 3.5 mph - N/A   Clear
5:15 PM 50.0 °F - 17.6 °F 28% 29.96 in 10.0 mi West 3.5 mph - N/A   Clear
5:35 PM 48.2 °F - 17.6 °F 30% 29.96 in 10.0 mi Calm Calm - N/A   Clear
5:55 PM 44.6 °F 43.1 °F 17.6 °F 34% 29.97 in 10.0 mi South 3.5 mph - N/A   Clear
6:15 PM 41.0 °F 37.1 °F 19.4 °F 42% 29.98 in 10.0 mi South 5.8 mph - N/A   Clear
6:35 PM 37.4 °F 33.8 °F 23.0 °F 56% 29.99 in 5.0 mi SSE 4.6 mph - N/A   Haze
6:55 PM 41.0 °F 36.4 °F 21.2 °F 45% 29.99 in 7.0 mi SSE 6.9 mph - N/A   Clear
7:15 PM 35.6 °F 29.2 °F 23.0 °F 60% 30.00 in 10.0 mi South 8.1 mph - N/A   Clear
7:35 PM 35.6 °F 29.9 °F 23.0 °F 60% 30.00 in 10.0 mi SSE 6.9 mph - N/A   Clear
7:55 PM 35.6 °F 30.7 °F 23.0 °F 60% 30.01 in 10.0 mi SSE 5.8 mph - N/A   Clear
8:15 PM 37.4 °F 34.9 °F 21.2 °F 52% 30.02 in 10.0 mi SSE 3.5 mph - N/A   Clear
8:35 PM 37.4 °F 32.8 °F 21.2 °F 52% 30.03 in 10.0 mi SE 5.8 mph - N/A   Clear
9:15 PM 35.6 °F 32.8 °F 21.2 °F 56% 30.04 in 10.0 mi SE 3.5 mph - N/A   Clear
9:35 PM 32.0 °F 27.5 °F 23.0 °F 69% 30.05 in 10.0 mi SE 4.6 mph - N/A   Clear
9:55 PM 32.0 °F 28.7 °F 23.0 °F 69% 30.05 in 10.0 mi South 3.5 mph - N/A   Clear
10:15 PM 30.2 °F - 21.2 °F 69% 30.06 in 10.0 mi Calm Calm - N/A   Clear
10:35 PM 28.4 °F - 21.2 °F 74% 30.06 in 10.0 mi Calm Calm - N/A   Clear
10:55 PM 30.2 °F - 21.2 °F 69% 30.06 in 10.0 mi Calm Calm - N/A   Clear